Other Public Products
Issued by NWS Charleston, SC

Current Version | Previous Version | Text Only | Print | Product List | Glossary On
Versions: 1 2 3 4 5 6 7 8 9 10 11 12 13 14 15 16 17 18 19 20 21 22 23 24 25 26 27 28 29 30 31 32 33 34 35 36 37 38 39 40 41 42 43 44 45 46 47 48 49 50
572
FPUS82 KCHS 240543
OPUCHS

TEST...KCHS/KSAV Gateway Observations...TEST
National Weather Service Charleston SC
100 AM EDT SUN SEP 24 2017

NOTE: "fair" indicates few or no clouds below 12,000 feet with no
significant weather and/or obstructions to visibility.

SCZ050-WAZ558-NCZ071-TXZ119-213-PAZ071-DCZ001-FLZ074-172-MI076-
NYZ176-178-MAZ016-IL014-TNZ027-NJZ106-GAZ044-MD014-240600-

...Gateway Observations for Charleston International...

CITY           SKY/WX    TMP DP  RH WIND       PRES   REMARKS
Chas Airport   CLEAR     72  69  90 NE5       29.99F
Seattle        PTCLDY    58  48  69 N5        30.11R
Charlotte      PTCLDY    71  63  75 NE3       30.08S
Dallas DFW     PTCLDY    83  66  56 SE13      29.86F
Dallas Love    CLEAR     81  66  60 SE12      29.88S
Philladelphia  CLEAR     74  59  59 CALM      30.04F
Wash National  PTCLDY    71  62  73 SW3       30.07F
Baltimore      CLEAR     64  61  90 W5        30.05F
Miami          PTCLDY    81  77  88 CALM      29.83F
Detroit        CLEAR     72  65  78 CALM      30.13F
Newark         CLEAR     75  56  51 CALM      30.04S
Laguardia      CLEAR     74  60  61 N3        30.03S
J F K          CLEAR     71  56  58 NE3       30.05R
Boston Logan   PTCLDY    62  61  96 CALM      30.03S
Ft. Lauderdale PTCLDY    83  77  82 E8        29.82S HX  92
Chicago O`Hare CLEAR     76  65  68 SE6       30.06S
Chicago Midway CLEAR     80  67  64 E5        30.06S
Houston Bush   PTCLDY    76  72  87 S3        29.89R
Houston Hobby  PTCLDY    78  72  81 CALM      29.88S
Nashville      CLEAR     73  69  87 CALM      30.03S
Atlanta        CLEAR     74  65  73 E5        30.03F

$$

GAZ044-118-TXZ119-213-NCZ071-DCZ001-MDZ014-506-PAZ021-071-NJZ106-
NYZ176-178-MAZ106-OHZ011-021-055-MIZ076-KYZ091-ILZ014-INZ047-
MNZ060-ONZ431-240600-

...Gateway Observations for Savannah International...

CITY           SKY/WX    TMP DP  RH WIND       PRES   REMARKS
Savannah Arpt  PTCLDY    71  70  96 N5        29.98F
Atlanta        CLEAR     74  65  73 E5        30.03F
Charlotte      PTCLDY    71  63  75 NE3       30.08S
Dallas DFW     PTCLDY    83  66  56 SE13      29.86F
Houston Bush   PTCLDY    76  72  87 S3        29.89R
Wash National  PTCLDY    71  62  73 SW3       30.07F
Wash Dulles    CLEAR     64  62  93 NW3       30.08F
Baltimore      CLEAR     64  61  90 W5        30.05F
Philadelphia   CLEAR     74  59  59 CALM      30.04F
Newark         CLEAR     75  56  51 CALM      30.04S
Laguardia      CLEAR     74  60  61 N3        30.03S
J F K          CLEAR     71  56  58 NE3       30.05R
Boston         PTCLDY    62  61  96 CALM      30.03S
Pittsburg      CLEAR     66  59  78 CALM      30.14S
Akron          CLEAR     71  59  65 NE5       30.15S
Cleveland      CLEAR     69  58  67 CALM      30.15R
Cincinnati     CLEAR     74  64  71 CALM      30.08S
Columbus       CLEAR     66  60  83 NE3       30.10R
Detroit        CLEAR     72  65  78 CALM      30.13F
Chicago O`Hare CLEAR     76  65  68 SE6       30.06S
Minneapolis    MOCLDY    79  66  64 S6        29.94R
Indianapolis   CLEAR     75  63  66 CALM      30.07S
Toronto Canada CLEAR     73  66  78 NW2       30.10R

$$




USA.gov is the U.S. government's official web portal to all federal, state and local government web resources and services.